This is the latest recevied weather packets stored in our database for station/object SV4JYD-14. If no packets are shown the sender has not sent any weather packets the latest 10 day(s).
| Time | Temp. | Humidity | Pressure | Rain* | Wind** | Luminosity | Snow |
|---|---|---|---|---|---|---|---|
| 1787706303 | 25° C | 61% | 1012 hPa | 0 mm | - | - | - |
| 1787705403 | 25.56° C | 63% | 1012 hPa | 0 mm | - | - | - |
| 1787704503 | 26.11° C | 63% | 1012 hPa | 0 mm | - | - | - |
| 1787703602 | 26.11° C | 61% | 1012 hPa | 0 mm | - | - | - |
| 1787702702 | 26.67° C | 56% | 1012 hPa | 0 mm | - | - | - |
| 1787701802 | 26.67° C | 56% | 1012 hPa | 0 mm | - | - | - |
| 1787700902 | 26.11° C | 58% | 1012 hPa | 0 mm | - | - | - |
| 1787700001 | 26.11° C | 58% | 1013 hPa | 0 mm | - | - | - |
| 1787699101 | 26.11° C | 57% | 1013 hPa | 0 mm | - | - | - |
| 1787698201 | 26.11° C | 57% | 1012 hPa | 0 mm | - | - | - |
| 1787697300 | 26.67° C | 55% | 1012 hPa | 0 mm | - | - | - |
| 1787696400 | 26.67° C | 50% | 1013 hPa | 0 mm | - | - | - |
| 1787695500 | 26.67° C | 50% | 1014 hPa | 0 mm | - | - | - |
| 1787694600 | 27.22° C | 47% | 1013 hPa | 0 mm | - | - | - |
| 1787693699 | 27.22° C | 47% | 1013 hPa | 0 mm | - | - | - |
| 1787692799 | 27.22° C | 47% | 1013 hPa | 0 mm | - | - | - |
| 1787691899 | 28.33° C | 42% | 1013 hPa | 0 mm | - | - | - |
| 1787690998 | 28.33° C | 42% | 1013 hPa | 0 mm | - | - | - |
| 1787690098 | 28.89° C | 44% | 1013 hPa | 0 mm | - | - | - |
| 1787689198 | 28.89° C | 43% | 1013 hPa | 0 mm | - | - | - |
| 1787688297 | 28.33° C | 42% | 1013 hPa | 0 mm | - | - | - |
| 1787687397 | 29.44° C | 39% | 1013 hPa | 0 mm | - | - | - |
| 1787686497 | 29.44° C | 39% | 1013 hPa | 0 mm | - | - | - |
| 1787685596 | 29.44° C | 41% | 1012 hPa | 0 mm | - | - | - |
| 1787684696 | 29.44° C | 44% | 1012 hPa | 0 mm | - | - | - |
* Rain latest hour (hover to see other rain measurements)
** Current wind speed in m/s (hover to see current wind gust speed)